N3ATE Weather Reports


time (UTC)temp
F
wind
direction
speed
knots
gust
knots
rain 1hr
in
rain 24hr
in
rain mn
in
humidity
%
barometer
mb
20260504081532 41 273 0.0 0.0 0.00 0.00 0.00 76 1011.3
20260504044605 47 260 0.0 0.0 0.00 0.00 0.00 65 1011.3
20260504043029 46 360 0.0 0.0 0.00 0.00 0.00 66 1011.2
20260504041559 47 360 0.0 0.9 0.00 0.00 0.00 66 1011.1
20260504040021 47 360 0.0 1.7 0.00 0.00 0.00 65 1011.0
20260504034536 47 262 0.0 1.7 0.00 0.00 0.00 65 1010.9
20260504033116 48 360 0.0 1.7 0.00 0.00 0.00 65 1010.9
20260504031529 49 263 0.0 2.6 0.00 0.00 0.00 61 1010.9
20260504030035 49 263 0.0 0.0 0.00 0.00 0.00 60 1010.7
20260504024508 50 263 0.0 2.6 0.00 0.00 0.00 59 1010.7
20260504023031 50 263 0.9 2.6 0.00 0.00 0.00 59 1010.8
20260504021556 50 259 0.0 0.0 0.00 0.00 0.00 59 1010.9
20260504020016 50 259 0.0 0.0 0.00 0.00 0.00 58 1010.9
20260504014545 51 259 0.0 0.0 0.00 0.00 0.00 57 1010.8
20260504013009 51 259 0.0 0.0 0.00 0.00 0.00 57 1010.7
20260504011541 51 259 0.0 0.0 0.00 0.00 0.00 56 1010.5
20260504010004 51 259 0.0 0.0 0.00 0.00 0.00 56 1010.3
20260504004543 52 259 0.0 0.0 0.00 0.00 0.00 53 1010.3
20260504003047 53 259 0.0 0.9 0.00 0.00 0.00 52 1010.2
20260504001513 54 360 0.9 3.5 0.00 0.00 0.00 50 1010.1
20260504000043 55 265 0.9 3.5 0.00 0.00 0.00 50 1010.0
20260503234604 55 258 0.0 7.0 0.00 0.00 0.00 49 1009.8
20260503233030 56 269 0.0 3.5 0.00 0.00 0.00 48 1009.7
20260503231551 56 254 0.9 7.0 0.00 0.00 0.00 47 1009.7
20260503230003 57 360 2.6 8.7 0.00 0.00 0.00 47 1009.6
20260503224535 57 360 2.6 11.3 0.00 0.00 0.00 46 1009.6
20260503223103 58 360 2.6 11.3 0.00 0.00 0.00 46 1009.6
20260503221529 57 261 1.7 7.0 0.00 0.00 0.00 45 1009.7
20260503220101 58 270 3.5 9.6 0.00 0.00 0.00 45 1009.7
20260503214523 57 260 2.6 9.6 0.00 0.00 0.00 48 1009.7
20260503213055 59 258 5.2 9.6 0.00 0.00 0.00 46 1009.5
20260503211534 58 334 3.5 10.4 0.00 0.00 0.00 46 1009.4
20260503210050 58 360 5.2 10.4 0.00 0.00 0.00 45 1009.4
20260503204516 57 360 1.7 10.4 0.00 0.00 0.00 44 1009.4
20260503203042 58 255 4.3 11.3 0.00 0.00 0.00 45 1009.4
20260503201600 58 360 2.6 8.7 0.00 0.00 0.00 46 1009.5
20260503200020 57 360 1.7 10.4 0.00 0.00 0.00 45 1009.7
20260503194543 57 229 2.6 11.3 0.00 0.00 0.00 45 1009.9
20260503193105 57 360 5.2 9.6 0.00 0.00 0.00 45 1010.3
20260503191532 58 253 5.2 10.4 0.00 0.00 0.00 45 1010.3
20260503190100 57 262 2.6 7.0 0.00 0.00 0.00 45 1010.4
20260503184523 57 360 2.6 13.0 0.00 0.00 0.00 45 1010.6
20260503183053 57 360 6.1 9.6 0.00 0.00 0.00 46 1010.8
20260503181519 56 360 3.5 12.2 0.00 0.00 0.00 47 1011.0
20260503180046 55 259 1.7 10.4 0.00 0.00 0.00 52 1011.1
20260503174507 54 360 2.6 9.6 0.00 0.00 0.00 51 1011.3
20260503173035 54 252 4.3 13.9 0.00 0.00 0.00 50 1011.5
20260503171548 54 360 6.1 14.8 0.00 0.00 0.00 51 1011.5
20260503100132 37 271 0.0 3.5 0.00 0.00 0.00 78 1012.0